TimeEDT,TemperatureF,Dew PointF,Humidity,Sea Level PressureIn,VisibilityMPH,Wind Direction,Wind SpeedMPH,Gust SpeedMPH,PrecipitationIn,Events,Conditions,WindDirDegrees,DateUTC
12:56 AM,28.0,18.0,66,29.78,10.0,West,9.2,-,N/A,,Overcast,270,2013-03-21 04:56:00
1:56 AM,27.0,17.1,66,29.78,10.0,West,9.2,-,N/A,,Overcast,260,2013-03-21 05:56:00
2:56 AM,26.1,17.1,69,29.77,10.0,West,8.1,-,N/A,,Scattered Clouds,260,2013-03-21 06:56:00
3:56 AM,25.0,14.0,63,29.76,10.0,West,9.2,-,N/A,,Clear,260,2013-03-21 07:56:00
4:56 AM,25.0,15.1,66,29.75,10.0,West,9.2,-,N/A,,Clear,260,2013-03-21 08:56:00
5:56 AM,26.1,16.0,66,29.74,10.0,West,11.5,-,N/A,,Clear,270,2013-03-21 09:56:00
6:56 AM,25.0,16.0,69,29.75,10.0,West,8.1,-,N/A,,Partly Cloudy,270,2013-03-21 10:56:00
7:56 AM,25.0,16.0,69,29.75,10.0,West,6.9,-,N/A,,Scattered Clouds,260,2013-03-21 11:56:00
8:56 AM,27.0,18.0,69,29.75,10.0,West,5.8,-,N/A,,Partly Cloudy,280,2013-03-21 12:56:00
9:56 AM,30.0,16.0,56,29.73,10.0,West,16.1,-,N/A,,Mostly Cloudy,260,2013-03-21 13:56:00
10:56 AM,30.9,18.0,59,29.73,10.0,WSW,15.0,21.9,N/A,,Clear,240,2013-03-21 14:56:00
11:56 AM,30.0,21.0,69,29.73,10.0,SW,15.0,-,N/A,,Mostly Cloudy,230,2013-03-21 15:56:00
12:10 PM,28.4,23.0,80,29.72,2.0,SW,11.5,-,0.00,Snow,Light Snow,220,2013-03-21 16:10:00
12:17 PM,28.4,23.0,80,29.72,1.0,SW,13.8,21.9,0.00,Snow,Light Snow,230,2013-03-21 16:17:00
12:34 PM,28.4,21.2,74,29.72,2.5,WSW,12.7,20.7,0.00,Snow,Light Snow,240,2013-03-21 16:34:00
12:40 PM,28.4,19.4,69,29.71,3.0,WSW,12.7,25.3,0.00,Snow,Light Snow,240,2013-03-21 16:40:00
12:56 PM,30.9,19.0,61,29.73,9.0,WSW,16.1,26.5,0.00,,Overcast,240,2013-03-21 16:56:00
1:56 PM,30.9,19.0,61,29.73,10.0,WSW,18.4,26.5,N/A,,Overcast,250,2013-03-21 17:56:00
2:56 PM,30.0,18.0,61,29.72,10.0,WSW,15.0,20.7,N/A,,Overcast,250,2013-03-21 18:56:00
3:56 PM,30.0,17.1,59,29.72,10.0,WSW,17.3,24.2,N/A,,Overcast,240,2013-03-21 19:56:00
4:56 PM,30.0,17.1,59,29.71,10.0,WSW,15.0,-,N/A,,Overcast,240,2013-03-21 20:56:00
5:56 PM,30.0,17.1,59,29.71,10.0,WSW,11.5,-,N/A,,Overcast,250,2013-03-21 21:56:00
6:54 PM,28.4,21.2,74,29.70,1.5,West,13.8,-,0.00,Snow,Light Snow,260,2013-03-21 22:54:00
6:56 PM,28.0,23.0,81,29.72,1.2,West,12.7,-,0.00,Snow,Light Snow,260,2013-03-21 22:56:00
7:15 PM,28.4,24.8,86,29.70,0.8,WSW,8.1,-,0.00,Snow,Light Snow,240,2013-03-21 23:15:00
7:28 PM,28.4,24.8,86,29.70,1.8,SW,10.4,-,0.00,Snow,Light Snow,230,2013-03-21 23:28:00
7:48 PM,28.4,24.8,86,29.69,3.0,SW,6.9,-,0.00,Snow,Light Snow,230,2013-03-21 23:48:00
7:56 PM,28.0,24.1,85,29.71,8.0,SW,8.1,-,0.00,,Overcast,230,2013-03-21 23:56:00
8:56 PM,28.0,25.0,88,29.70,4.0,SSW,5.8,-,0.00,Snow,Light Snow,200,2013-03-22 00:56:00
9:11 PM,28.4,24.8,86,29.68,2.5,SSW,5.8,-,0.00,Snow,Light Snow,200,2013-03-22 01:11:00
9:18 PM,28.4,24.8,86,29.68,0.8,South,5.8,-,0.00,Snow,Light Snow,190,2013-03-22 01:18:00
9:28 PM,28.4,24.8,86,29.68,1.2,SSW,3.5,-,0.00,Snow,Light Snow,200,2013-03-22 01:28:00
9:38 PM,28.4,26.6,93,29.68,2.0,SSW,4.6,-,0.00,Snow,Light Snow,200,2013-03-22 01:38:00
9:48 PM,28.4,26.6,93,29.68,3.0,SSW,3.5,-,0.01,Snow,Light Snow,200,2013-03-22 01:48:00
9:51 PM,28.4,26.6,93,29.68,2.5,SSW,3.5,-,0.01,Snow,Light Snow,200,2013-03-22 01:51:00
9:56 PM,28.0,26.1,92,29.70,0.8,South,3.5,-,0.01,Snow,Light Snow,180,2013-03-22 01:56:00
10:11 PM,28.4,26.6,93,29.68,0.5,South,4.6,-,0.02,Fog-Snow,Snow,190,2013-03-22 02:11:00
10:19 PM,28.4,26.6,93,29.68,2.0,South,4.6,-,0.02,Snow,Light Snow,190,2013-03-22 02:19:00
10:26 PM,28.4,26.6,93,29.68,1.5,SSW,4.6,-,0.02,Snow,Light Snow,210,2013-03-22 02:26:00
10:38 PM,28.4,26.6,93,29.68,2.0,South,3.5,-,0.04,Snow,Light Snow,170,2013-03-22 02:38:00
10:45 PM,28.4,26.6,93,29.68,9.0,Calm,Calm,-,0.04,,Overcast,0,2013-03-22 02:45:00
10:56 PM,27.0,25.0,92,29.69,10.0,SSE,4.6,-,0.04,,Overcast,150,2013-03-22 02:56:00
11:11 PM,28.4,24.8,86,29.67,10.0,SSE,4.6,-,N/A,,Overcast,150,2013-03-22 03:11:00
11:24 PM,26.6,24.8,93,29.68,9.0,SSE,8.1,-,N/A,,Overcast,160,2013-03-22 03:24:00
11:56 PM,27.0,24.1,89,29.69,4.0,South,4.6,-,0.00,Snow,Light Snow,170,2013-03-22 03:56:00